STARLINK-32747 (62600 NORAD) Tracking and Keplerian Element Data

This shows tracking and keplerian element data for the satellite.

Feedback or suggestion? Click here.




ElementValue
Catalog62600
NameSTARLINK-32747
Epoch Orbit5338
Epoch Day354.06892205
Epoch Year2025
RAAN7.9161
Inclination43.0008
Eccentricity6.65E-05
Argument of Perigee253.4719
Mean Anonmoly106.606
Mean Motion15.27580356
Decay Rate0.00014017
L11 62600U 25008P 25354.06892205 .00014017 00000+0 51792-3 0 9999
L22 62600 43.0008 7.9161 0000665 253.4719 106.6060 15.27580356 53383



Live tracking and technical data element details for STARLINK-32747 (NORAD 62600). STARLINK-32747 can be tracked NOW for your location showing map with azimuth and elevation plus other details from your city location.







IsCatalogInMostPopularTable: catalog: 62600, numindb: 240
Update: records affected: 1



GetName: 62600 STARLINK-32747

Hit Count: updated at: Tue, 20 Jan 2026 18:36:42 GMT